TIANTONG-1 3

Last updated on Sun Oct 06 2024 00:02:42 GMT+0000 (Coordinated Universal Time)

1 47321U 21003A 24279.55713977 -.00000148 00000+0 00000+0 0 9993 2 47321 2.6647 314.3334 0004515 264.2247 78.2830 1.00272981 13740
UTC large
Height (km)
Speed (km/s)
/
Latitude / Longitude
Inclination (degrees)
Orbital Period (minutes)
Azimuth
Elevation
Range (km)
Doppler Factor

Next 0 passes for location: London (51.5072 / 0.1276)

Sorry there are no passes over London.